{"data":{"norad_id":53492,"epoch":"2026-09-20T03:25:35.995872Z","epoch_age_seconds":42121,"freshness":"FRESH","line1":"1 53492U 22099AD  26263.14277773  .02587559  26031-5  53715-3 0  9994","line2":"2 53492  97.5891  33.9281 0009832 296.5859  63.4427 16.30972232226018","mean_motion":16.30972232,"eccentricity":0.0009832,"inclination_deg":97.5891,"raan_deg":33.9281,"arg_perigee_deg":296.5859,"mean_anomaly_deg":63.4427,"bstar":0.00053715,"rev_number":22601,"period_min":88.29089617511,"perigee_km":183.47059903093,"apogee_km":196.38604267786,"semimajor_km":6568.0653208544,"source":"CELESTRAK","updated_at":"2026-09-20T09:00:40.260731Z"}}